Content
SEND FEEDBACK

Algeria Flag

EL ASNAM, ALGERIA


Home > Africa > Algeria
Elevation: 469 feet     Latitude: 36 13N     Longitude: 001 19E

WEATHER
 
SELECT A DAY
Number of Records: 96,090;   Date Range: 12/25/01 - 3/22/16
 
SHARE

PRINT THIS DATA

[ ← Previous Day ]
WEATHER ALMANAC - FEBRUARY 1, 2013
[ Next Day → ]
[ °C ]   °F
Weather ElementAverageHighLow
Temperature57 °F71 °F (4:00 pm)46 °F (7:00 am)
Dewpoint43.9 °F47 °F (1:00 pm)39.2 °F (6:00 am)
Humidity62 %93 % (4:00 am)26 % (4:00 pm)
Barometer30.27 in30.42 in (1:00 am)30.09 in (9:00 pm)
Wind Speed5.9 mph13.8 mph (7:00 pm)
Weather ElementAverage
Visibility14 mi
Wind DirectionESE (117.1 °)

Weather ElementTotal
Precipitation---
Heating Degree Days6.5 (Base 65)
Growing Degree Days8.5 (Base 50)
Averaged from 30 records on February 1, 2013
WEATHER CONDITIONS BREAKOUT
WIND DIRECTION BREAKOUT
WEATHER BY HOUR - FEBRUARY 1, 2013
[ °C ]   °F
Local TimeTemperatureDewpointHumidityBarometerVisibilityWind DirectionWind SpeedGust SpeedPrecipitationEventsConditions
1:00 AM50.0 °F42.8 °F76 %30.42 inCalmClear
2:00 AM50.0 °F44.6 °F82 %30.42 inCalmClear
3:00 AM50.0 °F44.6 °F82 %30.42 inCalmClear
4:00 AM49.0 °F46.0 °F84 %30.40 in16.0 miCalm
4:00 AM48.2 °F46.4 °F93 %30.39 inCalmClear
5:00 AM46.4 °F42.8 °F87 %30.36 inNE (40°)8.1 mphClear
6:00 AM48.2 °F39.2 °F71 %30.36 inNE (40°)9.2 mphClear
7:00 AM46.4 °F41.0 °F81 %30.36 inNE (40°)9.2 mphClear
7:00 AM46.0 °F41.0 °F75 %30.38 in16.0 miNE (40°)9.2 mph
8:00 AM46.4 °F41.0 °F81 %30.36 inNE (40°)9.2 mphClear
9:00 AM46.4 °F41.0 °F81 %30.36 inENE (60°)4.6 mphClear
10:00 AM50.0 °F42.0 °F67 %30.38 in16.0 miENE (60°)9.2 mph
10:00 AM50.0 °F42.8 °F76 %30.36 inENE (60°)9.2 mphClear
11:00 AM55.4 °F42.8 °F63 %30.36 inENE (60°)6.9 mphClear
12:00 PM59.0 °F46.4 °F63 %30.33 inENE (60°)4.6 mphClear
1:00 PM64.4 °F46.4 °F52 %30.30 inCalmClear
1:00 PM64.0 °F47.0 °F42 %30.30 in16.0 miCalmClear
2:00 PM66.2 °F46.4 °F49 %30.24 inWSW (240°)3.5 mphClear
3:00 PM68.0 °F46.4 °F46 %30.21 inCalmClear
4:00 PM71.0 °F44.0 °F26 %30.18 in16.0 miWSW (240°)9.2 mph
4:00 PM69.8 °F42.8 °F38 %30.15 inWSW (240°)9.2 mphClear
5:00 PM69.8 °F44.6 °F40 %30.15 inWSW (240°)9.2 mphClear
6:00 PM66.2 °F44.6 °F46 %30.12 inWSW (240°)10.4 mphClear
7:00 PM64.4 °F42.8 °F45 %30.12 inWest (260°)13.8 mphClear
7:00 PM64.0 °F43.0 °F35 %30.15 in9.0 miWest (260°)13.8 mph
8:00 PM62.6 °F46.4 °F55 %30.12 inCalmClear
9:00 PM59.0 °F46.4 °F63 %30.09 inWest (260°)11.5 mphClear
10:00 PM60.0 °F44.0 °F44 %30.11 in9.0 miWest (280°)6.9 mph
10:00 PM59.0 °F44.6 °F59 %30.09 inWest (280°)6.9 mphClear
11:00 PM59.0 °F44.6 °F59 %30.09 inWSW (240°)4.6 mphClear
Hourly data recorded from DAOI, located miles away from El Asnam, Algeria




STORIES FROM OUR PARTNERS